Voltar ao catálogo

ONEWEB-0318

AtivoComunicaçõesPO
NORAD 49104·PAYLOAD·🇬🇧 United Kingdom

Lançado Aug 21, 2021 de Baikonur Cosmodrome

Loading…

Próximas Passagens (próximas 24 horas)

TLE

AtualizadoSource: CelesTrak SupGP

Época: Sep 14, 2026, 17:07 UTC

1 49104C 21075AF  26257.71338380 -.00000383  00000+0 -97203-3 0  2574
2 49104  87.9171 317.6725 0002032 103.7469   8.4845 13.18691638    17

Acompanhe ONEWEB-0318 em tempo real com AllMySat

Download on the App Store